Weather Roundup
Issued by NWS

Home | Current Version | Previous Version | Graphics & Text | Print | Product List | Glossary Off
Versions: 1 2 3 4 5 6 7 8 9 10 11 12 13 14 15 16 17 18 19 20 21 22 23 24 25 26 27 28 29 30 31 32 33 34 35 36 37 38 39 40 41 42 43 44 45 46 47 48 49 50

000
NZUS93 KARX 211159
HRRWXR

CURRENT HOURLY OBSERVATIONS ACROSS
MUCH OF THE UPPER MISSISSIPPI VALLEY
NATIONAL WEATHER SERVICE LA CROSSE WI
700 AM CDT TUE APR 21 2015


...SOUTHEAST MINNESOTA...


CITY           SKY/WX    TMP DP  RH WIND       PRES   REMARKS
ROCHESTER      CLOUDY    34  27  75 NW25G36   29.55R WCI  21
ROCHESTER/MAYO CLOUDY    35  29  79 W20G35    29.54R WCI  24
WINONA         CLOUDY    37  28  70 W14       29.54R WCI  29
AUSTIN         CLOUDY    36  27  69 W15G28    29.59R WCI  26
ALBERT LEA     CLOUDY    36  28  75 W15G22    29.60S WCI  26
DODGE CENTER   CLOUDY    36  28  75 W18G28    29.56R WCI  25
PRESTON        CLOUDY    34  28  78 W24G32    29.57R WCI  21
OWATONNA       CLOUDY    36  28  75 W21G36    29.59R WCI  24
FARIBAULT      CLOUDY    36  28  75 W20G32    29.58R WCI  25
$$

...ELSEWHERE IN MINNESOTA...


CITY           SKY/WX    TMP DP  RH WIND       PRES   REMARKS
MINNEAPOLIS    MOCLDY    35  23  61 W18G26    29.55R WCI  24
INTNL FALLS    LGT SNOW  27  22  81 N15G24    29.43R WCI  15
DULUTH         LGT SNOW  31  26  82 W14       29.36S WCI  21
RED WING       CLOUDY    36  25  64 NW13G21   29.53R WCI  27
REDWOOD FALLS  CLOUDY    35  26  69 NW16      29.65R WCI  25
MANKATO        CLOUDY    36  25  64 NW20G37   29.62R WCI  25
WORTHINGTON    PTCLDY    30  21  69 W15       29.71R WCI  19
FAIRMONT       CLEAR     36  25  64 W18       29.65R WCI  25
$$

...SOUTHWEST WISCONSIN...


CITY           SKY/WX    TMP DP  RH WIND       PRES   REMARKS
LA CROSSE      CLOUDY    39  26  59 W18G26    29.53R WCI  30
PRAIRIE DU CHI CLOUDY    39  27  60 W18G24    29.59R WCI  30
BOSCOBEL       CLOUDY    40  24  53 W15       29.57R WCI  32
LONE ROCK      NOT AVBL
PLATTEVILLE    CLOUDY    39  30  71 W21G30    29.58R WCI  29
FORT MC COY    CLOUDY    36  27  71 W15G22    29.51R WCI  27
CAMP DOUGLAS   LGT RAIN  34  34 100 W15       29.48S WCI  24
VIROQUA        CLOUDY    35  28  78 W13G20    29.51S WCI  26
WIS DELLS      CLOUDY    35  30  82 W15       29.50R WCI  25
$$

...ELSEWHERE IN WISCONSIN...


CITY           SKY/WX    TMP DP  RH WIND       PRES   REMARKS
MILWAUKEE      PTCLDY    39  28  64 SW17G25   29.52R WCI  30
MADISON        CLOUDY    39  28  64 W7G16     29.51S WCI  34
GREEN BAY      CLOUDY    37  32  82 W13G20    29.42R WCI  29
EAU CLAIRE     NOT AVBL
BLACK RVR FLS  CLOUDY    35  29  80 W12G20    29.49S WCI  27
MEDFORD        LGT SNOW  31  30  94 W9        29.39S WCI  23
WAUSAU         FLURRIES  33  29  85 W15G23    29.38S WCI  23
WIS RAPIDS     LGT SNOW  34  29  82 W9        29.46S WCI  27
MARSHFIELD     LGT SNOW  33  30  88 W16G22    29.43R FOG     WCI  23
RICE LAKE      CLOUDY    32  29  88 W7        29.47R WCI  26
$$

...NORTHEAST IOWA...


CITY           SKY/WX    TMP DP  RH WIND       PRES   REMARKS
DECORAH        CLOUDY    37  30  75 W17G25    29.57R WCI  28
MASON CITY     CLEAR     34  27  75 W18       29.65S WCI  23
CHARLES CITY   FAIR      36  28  75 W17G26    29.63S WCI  25
OELWEIN        CLEAR     36  28  75 W16       29.64R WCI  26
$$

...ELSEWHERE IN IOWA...


CITY           SKY/WX    TMP DP  RH WIND       PRES   REMARKS
DES MOINES     CLEAR     36  21  54 W3        29.76R
IOWA CITY      CLEAR     38  29  70 W10       29.72R WCI  31
FORT DODGE     CLEAR     34  25  69 W9        29.71S WCI  26
$$

...NORTHERN ILLINOIS...


CITY           SKY/WX    TMP DP  RH WIND       PRES   REMARKS
CHICAGO-OHARE  PTCLDY    40  29  64 W17G24    29.59S WCI  31
CHICAGO-MIDWAY PTCLDY    42  30  62 SW12      29.62S
MOLINE         CLEAR     40  28  62 SW12      29.69R WCI  33
ROCKFORD       MOCLDY    40  29  64 W18G25    29.62R WCI  31
PEORIA         CLEAR     40  27  59 W7        29.73R
$$

NOTE: "FAIR" INDICATES FEW OR NO CLOUDS BELOW 12,000 FEET WITH NO
SIGNIFICANT WEATHER AND/OR OBSTRUCTIONS TO VISIBILITY. WIND
SPEEDS ARE IN MILES-PER-HOUR.



USA.gov is the U.S. government's official web portal to all federal, state and local government web resources and services.